{"data":{"norad_id":55146,"intl_designator":"2023-004G","name":"ONEWEB-0565","alt_names":[],"object_type":"PAYLOAD","status":"ACTIVE","operator":null,"country":"UK","launch_date":"2023-01-10","launch_site_code":"AFETR","launch_vehicle":null,"mission":null,"orbit_class":"UNKNOWN","rcs_meters":null,"size_class":null,"mass_kg":null,"dimensions":null,"purposes":["comms"],"wikipedia_slug":null,"has_3d_model":false,"image_url":null,"decayed_at":null,"tle_current":{"epoch":"2026-09-19T21:55:16.252320Z","epoch_age_seconds":72708,"freshness":"FRESH","line1":"1 55146U 23004G   26262.91338255 -.00000062  00000+0 -18891-3 0  9993","line2":"2 55146  87.9145 316.6518 0001595 101.8748 258.2563 13.18684358182184","mean_motion":13.18684358,"eccentricity":0.0001595,"inclination_deg":87.9145,"raan_deg":316.6518,"arg_perigee_deg":101.8748,"mean_anomaly_deg":258.2563,"bstar":-0.00018891,"rev_number":18218,"period_min":109.1997483146,"perigee_km":1188.5423312344,"apogee_km":1190.9564869989,"semimajor_km":7567.8864091167,"source":"CELESTRAK","updated_at":"2026-09-20T09:00:44.751221Z"}}}